Regional Weather Roundup
Issued by NWS

Home | Current Version | Previous Version | Text Only | Print | Product List | Glossary Off
Versions: 1 2 3 4 5 6 7 8 9 10 11 12 13 14 15 16 17 18 19 20 21 22 23 24 25 26 27 28 29 30 31 32 33 34 35 36 37 38 39 40 41 42 43 44 45 46 47 48 49 50

000
ASUS43 KFSD 130802
RWRSD

WEATHER ROUNDUP FOR SOUTH DAKOTA
NATIONAL WEATHER SERVICE SIOUX FALLS SD
300 AM CDT SUN JUL 13 2014

NOTE: "FAIR" INDICATES FEW OR NO CLOUDS BELOW 12,000 FEET WITH NO
SIGNIFICANT WEATHER AND/OR OBSTRUCTIONS TO VISIBILITY.


SDZ001>005-009-010-012>017-130900-
NORTHWEST AND NORTH CENTRAL SOUTH DAKOTA

CITY           SKY/WX    TMP DP  RH WIND       PRES   REMARKS
BUFFALO          N/A     59  50  72 VRB3      30.12F
FAITH            N/A     60  57  89 W5        30.14F
MOBRIDGE       CLEAR     61  58  90 N8        30.05S
$$

SDZ012>016-024>037-041>051-057-063-072>074-130900-
SOUTHWEST AND SOUTH CENTRAL SOUTH DAKOTA

CITY           SKY/WX    TMP DP  RH WIND       PRES   REMARKS
RAPID CTY ARPT CLEAR     64  58  80 N8        30.19S
PIERRE         CLEAR     63  62  97 CALM      30.06F
CUSTER         CLEAR     56  52  86 NW6       30.34S
PHILIP         CLEAR     64  61  90 W7        30.11S
PINE RIDGE     CLEAR     60  60 100 SW3       30.21S
WINNER         FAIR      66  61  84 SW7       30.08F
$$

SDZ004>011-016>023-039-040-130900-
NORTHEAST SOUTH DAKOTA

CITY           SKY/WX    TMP DP  RH WIND       PRES   REMARKS
ABERDEEN       CLEAR     59  56  89 N7        30.02F
WATERTOWN      CLEAR     65  62  90 W7        30.00F
SISSETON         N/A     58  55  90 NW6       29.97F
$$

SDZ017-020-022-023-036>040-048>070-130900-
SOUTHEAST SOUTH DAKOTA

CITY           SKY/WX    TMP DP  RH WIND       PRES   REMARKS
SIOUX FALLS    CLEAR     67  64  90 W3        30.01S
HURON          CLEAR     65  62  90 W8        30.01F
CHAMBERLAIN    CLEAR     63  60  89 CALM      30.06F
MITCHELL       CLEAR     66  61  84 NW6       30.02F
YANKTON        CLEAR     66  64  94 CALM      30.03S
$$

ABBREVIATIONS USED IN REMARKS
   TC - TEMPERATURE IN CELSIUS
  WCI - WIND CHILL INDEX
   HX - HEAT INDEX
  VSB - VISIBILITY




USA.gov is the U.S. government's official web portal to all federal, state and local government web resources and services.